User: anonymous   Login
Location: Fredericksburg
(30.2750°N, 98.8720°W)
Time: 17:35:38
(UTC-05:00)
Language:

PCSat - Orbit

View from above orbital plane
View from above orbital plane
View from above satellite
View from above satellite

Ground track
Ground track

The orbit data is extracted from the following two-line orbital elements,

1 26931U 01043C   18291.40667051 -.00000020  00000-0  24109-4 0  9992
2 26931  67.0502 271.4590 0007107 259.3430 100.6871 14.30520261890174
Epoch (UTC): 18 October 2018 09:45:36
Eccentricity: 0.0007107
inclination: 67.0502°
perigee height: 785 km
apogee height: 795 km
right ascension of ascending node: 271.4590°
argument of perigee: 259.3430°
revolutions per day: 14.30520261
mean anomaly at epoch: 100.6871°
orbit number at epoch: 89017

The dashed part of the orbit path shows where the satellite is in the earth's shadow,  

DLR